Temperature
16 16 16 16 16 16 16 16 16 16 16 16 16 16 16 16 16 16 16 16 16 15 15 15 15 15 15 15 15 15 15 15 15 15 14 14 14 13 14 13 13 13 13
16 16 16 16 16 16 16 16 16 16 16 16 16 16 16 16 16 16 16 16 15 15 15 15 15 15 15 15 15 15 15 15 15 14 14 14 13 13 13 13 13 13 13
16 16 16 16 16 16 16 16 16 16 16 16 16 16 16 16 16 16 16 15 15 15 15 15 15 15 15 15 15 15 15 15 15 14 14 13 13 13 13 13 13 13 12
16 16 16 16 16 16 16 16 16 16 16 16 16 16 15 15 16 16 15 15 15 15 15 15 15 15 15 15 15 15 15 14 14 14 13 13 12 13 12 12 12 12 12
15 15 15 15 15 15 16 16 15 16 16 15 16 15 15 15 15 15 15 15 15 15 15 15 15 15 15 15 15 15 14 14 14 13 13 12 12 12 12 12 12 12 12
15 15 15 15 15 15 15 15 15 15 15 15 15 15 15 15 15 15 15 15 15 15 15 15 15 15 15 14 14 14 14 14 14 13 13 12 12 12 12 12 12 11 11
15 15 15 15 15 15 15 15 15 15 15 15 15 15 15 15 15 15 15 15 15 15 15 15 15 14 14 14 14 14 14 14 13 13 12 12 12 12 12 11 11 11 11
14 14 14 15 15 15 15 15 15 15 15 15 15 15 15 15 15 15 15 15 15 15 15 14 14 14 14 14 14 14 14 14 13 13 12 12 12 12 11 11 11 11 11
14 14 14 14 14 14 14 14 15 15 15 15 15 15 15 15 15 15 15 14 14 14 14 14 14 14 14 14 14 14 14 13 13 13 12 12 12 12 11 11 11 11 11
13 14 14 14 14 14 14 14 14 14 14 14 15 15 15 15 14 14 14 14 14 14 14 14 14 14 14 13 13 13 13 13 12 12 12 12 12 11 11 11 11 11 11
13 13 13 13 13 13 14 14 14 14 14 14 14 14 14 14 14 14 14 14 14 14 14 13 13 13 13 13 13 13 13 12 12 12 12 12 11 11 11 11 11 11 11
13 13 13 13 13 13 13 13 13 13 13 13 14 14 14 14 14 14 14 14 13 13 13 13 13 13 13 12 13 12 12 12 12 12 11 11 11 11 11 10 10 10 10
12 12 13 13 13 13 13 13 13 13 13 13 13 13 13 13 13 13 13 13 13 13 13 13 13 12 12 12 12 12 12 12 11 11 11 11 11 11 11 10 10 10 10
12 12 12 13 13 13 13 13 13 13 13 13 13 13 13 13 13 13 13 13 12 12 12 12 12 12 12 12 12 11 11 11 11 11 11 11 11 11 10 10 10 10 9
12 12 12 12 12 12 12 12 12 12 13 13 13 13 13 13 13 13 13 13 12 12 12 12 12 12 12 11 11 11 11 11 11 11 11 11 11 10 10 10 10 9 9
11 12 12 12 12 12 12 12 12 12 12 13 13 13 13 12 13 12 12 12 12 12 12 12 11 11 11 11 11 11 11 11 11 10 10 10 10 10 10 10 9 9 9
11 11 11 11 11 12 12 12 12 12 12 12 12 12 12 12 12 12 12 12 12 12 11 11 11 11 11 11 11 11 11 10 10 10 10 10 10 10 10 9 9 9 9
10 10 11 11 11 11 11 11 11 11 12 12 12 12 12 12 12 12 12 12 12 11 11 11 11 11 11 10 10 10 10 10 10 10 10 9 9 9 9 9 9 9 9
10 10 10 11 11 11 11 11 11 11 11 11 11 11 11 11 11 11 11 11 11 11 11 11 10 10 10 10 10 10 10 10 10 9 9 9 9 9 9 9 9 9 9
10 10 10 10 10 11 11 11 11 11 11 11 11 11 11 11 11 11 11 11 11 11 10 10 10 10 10 10 10 10 9 9 9 9 9 9 9 9 9 9 9 8 8
9 9 10 10 10 10 10 10 10 10 10 10 10 10 11 11 11 11 11 10 10 10 10 10 10 10 10 9 9 9 9 9 9 9 9 9 9 9 8 8 8 8 8
8 9 9 9 9 10 10 10 10 10 10 10 10 10 10 10 10 10 10 10 10 10 10 10 9 9 9 9 9 8 8 8 9 9 9 8 8 8 8 8 8 8 8
8 8 9 9 9 9 9 9 9 9 9 9 9 10 9 10 9 10 10 10 10 10 9 9 9 9 9 9 8 8 8 8 7 8 8 8 8 8 8 8 8 8 7
7 8 8 8 8 9 9 9 9 9 9 9 9 9 9 9 9 9 9 9 9 9 9 9 9 9 8 8 8 8 8 8 7 7 7 8 8 7 7 7 7 7 7
7 7 7 8 8 8 8 8 8 8 8 8 8 8 9 9 9 9 9 9 9 9 9 9 8 8 8 8 7 7 7 7 7 6 6 7 7 7 7 7 7 7 7
6 7 7 7 7 7 8 8 8 8 8 8 8 8 8 8 8 8 8 8 8 8 8 8 8 8 7 7 7 7 7 6 6 6 6 6 6 7 7 6 6 6 6
Wind_Speed
7 10 12 11 12 11 11 12 12 12 12 12 13 13 13 13 13 13 13 13 13 13 13 13 14 14 14 15 14 14 14 14 14 14 14 14 14 13 13 12 10 11 13
9 12 13 12 12 12 12 12 12 12 12 12 13 12 13 13 13 13 13 13 13 13 13 14 14 14 14 14 14 14 14 13 13 12 12 12 13 13 12 12 11 11 11
10 12 14 12 12 12 12 12 12 12 12 12 12 12 12 13 13 13 13 12 12 13 13 13 13 14 14 14 14 13 13 12 11 10 8 9 11 12 11 11 11 11 11
11 12 13 13 12 12 12 12 12 12 12 12 12 12 12 13 13 13 13 12 12 12 12 13 13 13 13 13 12 12 12 11 9 6 7 9 9 10 10 10 10 10 10
10 12 13 14 13 13 13 12 12 12 11 11 12 11 11 12 12 12 12 12 12 12 12 13 13 12 12 12 12 11 11 10 8 6 8 8 8 10 9 9 9 9 9
10 11 13 13 13 13 12 12 12 11 11 11 11 11 11 11 12 12 12 12 12 12 12 12 12 11 11 11 11 11 10 8 6 7 7 7 7 9 9 8 9 8 8
10 11 13 13 13 13 12 12 11 11 10 10 10 10 10 10 11 12 12 13 13 13 12 12 11 10 11 11 10 10 8 6 6 6 6 7 7 7 7 7 8 8 7
8 9 11 13 13 12 12 11 11 10 10 10 9 9 10 10 11 11 12 12 12 12 12 12 11 11 10 10 9 9 7 4 5 6 5 6 7 6 6 6 7 7 7
6 7 9 10 11 11 11 11 11 10 10 9 9 8 9 10 10 11 11 11 11 11 11 11 10 10 10 9 9 8 6 4 4 4 5 5 5 5 5 6 6 6 6
5 6 7 8 9 9 10 10 10 10 9 9 9 8 8 9 9 10 10 10 10 10 10 10 10 10 9 9 8 7 5 2 4 4 3 4 4 4 4 5 5 5 6
5 5 6 7 7 7 8 9 9 9 9 9 8 9 8 7 8 8 8 9 10 10 9 9 9 9 9 8 6 5 3 2 3 3 3 4 4 3 4 4 4 5 5
5 5 5 6 6 7 7 7 7 7 8 7 7 8 6 5 6 7 9 9 9 9 9 8 8 8 6 5 5 3 2 2 2 3 4 4 3 3 3 3 3 3 4
5 4 5 6 6 6 5 6 5 5 6 6 7 6 5 5 5 6 6 7 7 8 7 7 7 5 4 3 3 2 1 1 2 2 3 3 2 2 2 2 2 2 3
5 5 4 5 6 6 6 5 5 4 4 5 6 7 5 4 4 5 5 5 5 5 5 5 4 4 4 3 3 2 2 1 1 1 2 3 2 2 1 1 1 2 2
4 4 4 4 6 6 6 5 5 5 5 5 6 6 6 4 4 4 5 5 4 4 4 4 4 4 4 3 3 2 2 2 2 2 2 1 2 2 2 2 2 2 2
4 4 4 4 5 5 5 5 5 5 5 6 5 6 6 5 4 4 5 4 4 4 4 4 4 3 3 3 3 3 2 2 2 2 2 2 1 1 2 3 3 3 3
4 3 4 4 4 5 5 6 5 5 5 5 5 6 7 6 5 4 4 4 4 4 5 4 4 3 3 3 3 3 3 3 3 3 2 2 2 1 1 3 3 3 4
3 3 3 2 2 4 4 4 4 5 5 5 6 6 7 7 6 4 3 4 4 5 4 3 3 3 3 3 3 3 3 3 4 3 3 3 2 2 1 2 3 4 4
4 3 2 2 2 3 3 3 4 4 5 4 5 5 6 6 7 5 3 4 5 4 4 3 3 3 3 3 3 3 3 3 4 4 4 4 3 3 3 2 3 4 5
4 3 3 3 2 2 2 2 2 3 3 3 4 5 6 6 6 5 4 4 4 3 3 4 4 3 3 3 3 3 3 4 4 4 5 4 4 5 5 5 4 4 5
3 3 3 3 3 2 2 3 3 3 3 2 2 3 5 5 5 5 4 3 4 4 4 4 3 4 2 2 2 2 3 5 5 4 5 5 5 6 6 6 5 5 5
4 4 4 4 4 4 3 3 3 3 2 2 2 2 3 4 5 4 4 4 4 4 4 4 3 3 2 2 2 2 3 4 5 5 5 5 6 5 6 7 6 6 6
4 5 5 5 5 5 4 2 2 1 1 2 2 2 3 4 4 4 4 4 4 5 4 4 4 3 3 3 3 2 3 3 2 4 5 5 5 5 6 6 6 6 6
5 4 5 5 4 4 4 3 4 3 3 3 3 3 2 3 4 4 4 3 4 4 4 4 4 3 3 3 3 3 3 2 3 3 3 4 5 6 6 5 6 6 6
5 4 4 5 4 4 4 5 5 4 3 2 2 3 3 2 3 3 3 4 3 3 4 4 4 3 3 4 3 3 3 3 4 4 4 4 4 5 5 5 5 5 5
4 4 4 5 5 4 5 5 5 5 4 4 4 4 3 3 3 3 3 3 3 3 4 4 4 4 4 3 3 3 3 3 3 4 5 5 5 4 5 4 5 5 5
Wind_Direction
163 160 151 148 143 139 136 135 131 128 124 123 121 120 119 120 119 116 114 112 110 108 105 103 100 97 94 91 92 89 87 85 84 83 81 78 75 74 72 69 70 71 67
161 159 149 146 145 142 138 134 133 130 127 125 124 122 122 121 119 117 115 112 110 107 106 103 101 99 95 92 89 90 89 86 84 83 86 84 76 72 72 68 62 66 66
157 156 153 148 147 144 140 136 133 133 130 128 127 125 126 125 121 119 117 114 111 108 106 104 102 99 96 93 91 88 87 88 86 85 89 85 79 72 72 72 69 67 66
157 157 157 149 148 144 138 137 134 133 135 132 129 127 129 128 124 122 120 116 113 110 108 105 102 100 98 96 94 91 88 84 86 86 83 78 77 74 72 73 70 67 65
157 157 153 151 149 146 142 138 137 135 136 137 133 130 129 129 126 122 121 118 115 113 109 106 103 101 100 98 96 94 90 86 83 85 82 79 75 72 72 72 69 66 64
158 158 153 155 150 147 142 139 137 137 134 135 136 134 131 129 128 125 122 119 117 114 110 106 104 102 102 100 97 95 92 90 90 82 83 78 75 75 73 71 70 66 62
158 156 155 156 152 147 144 144 143 140 139 134 134 137 133 132 130 128 123 120 118 115 112 110 106 103 104 103 99 96 91 82 81 79 81 79 75 76 75 71 68 63 60
156 154 153 153 151 148 146 145 144 143 138 136 129 134 135 135 135 130 128 125 123 120 117 114 109 104 101 100 100 97 92 82 89 83 79 82 76 78 76 71 65 60 55
147 146 148 153 151 147 146 146 145 141 138 133 131 125 132 133 138 135 133 130 128 126 123 119 115 110 104 100 97 93 87 65 83 82 75 77 78 80 75 67 61 56 51
145 147 145 149 152 155 153 145 143 141 138 135 131 122 125 131 133 134 137 134 132 131 129 124 121 115 108 103 100 94 87 79 80 84 75 74 78 82 77 69 59 50 44
150 152 151 150 151 153 155 150 148 144 142 142 140 133 133 148 144 139 134 133 134 133 133 131 127 120 116 111 104 104 104 78 77 71 71 65 68 81 76 65 55 43 36
164 164 162 159 157 155 153 157 161 161 162 166 160 156 159 154 147 138 129 131 133 134 134 132 132 134 135 128 124 139 111 85 71 73 70 65 63 74 73 62 52 36 25
176 169 173 167 167 161 158 160 162 169 175 177 170 164 165 153 148 148 145 140 142 147 146 143 149 152 148 137 145 150 125 103 89 80 64 50 47 48 62 53 40 26 13
190 184 181 177 174 170 168 167 167 168 176 180 177 169 167 162 162 164 161 160 159 163 164 165 164 158 158 158 165 165 160 156 141 123 75 38 15 7 1 359 352 356 353
209 200 192 187 181 178 176 176 178 179 180 181 179 177 175 174 172 177 169 168 173 171 175 177 173 170 175 175 181 189 187 185 185 178 144 70 349 331 319 300 305 320 321
232 220 205 191 190 185 186 186 184 181 180 180 179 186 179 178 177 182 176 174 176 182 183 187 183 185 191 192 200 204 209 210 213 209 203 176 115 327 320 300 292 298 300
242 235 218 204 199 194 193 194 190 182 181 184 182 186 186 182 181 185 187 180 180 183 183 182 181 191 201 201 210 215 219 223 223 227 231 235 220 222 313 301 293 294 296
248 238 230 202 197 202 199 203 196 189 187 189 185 186 192 189 184 182 192 186 182 185 184 185 192 196 203 211 219 223 224 224 231 233 234 241 246 255 278 317 303 299 299
239 232 227 207 196 201 201 205 200 192 194 194 188 189 193 194 191 186 192 189 181 187 192 194 197 206 212 218 225 230 232 234 235 235 238 242 245 252 261 288 290 302 306
239 231 226 214 201 195 192 192 186 189 198 194 195 195 191 192 195 193 190 189 181 186 197 201 196 205 214 219 227 236 239 238 237 241 243 244 244 246 255 266 269 270 287
238 231 230 218 207 189 194 192 192 205 205 201 202 202 192 190 191 197 194 191 187 192 204 205 195 196 209 201 219 245 244 239 239 243 243 248 249 249 251 257 266 270 271
235 231 229 224 214 201 207 211 211 209 215 207 199 202 199 201 195 193 198 196 193 193 200 206 203 205 218 210 229 245 251 236 233 237 240 250 257 252 249 254 263 267 273
246 242 236 228 222 212 207 194 171 175 202 215 216 217 213 210 204 196 199 199 197 193 202 209 212 217 220 220 232 240 250 256 264 226 234 241 253 259 254 254 260 265 267
253 250 244 228 221 215 202 189 184 201 215 238 236 228 220 215 210 205 199 197 205 200 200 208 216 222 219 225 225 246 265 291 268 264 233 238 252 256 259 258 255 257 263
252 246 243 221 214 215 205 197 199 212 222 224 219 216 215 219 215 208 206 201 204 207 201 204 208 216 224 229 227 233 248 260 266 269 272 267 260 253 261 264 256 255 258
251 239 234 219 216 216 210 206 207 210 211 210 215 215 212 213 216 212 214 213 211 214 207 204 205 210 223 229 232 229 237 244 249 257 266 279 280 270 267 265 265 261 263
Height
1514 1516 1517 1519 1521 1522 1523 1524 1525 1526 1526 1527 1528 1528 1528 1529 1529 1530 1530 1530 1531 1531 1531 1531 1531 1531 1531 1531 1530 1530 1530 1529 1529 1529 1529 1528 1528 1527 1527 1526 1526 1525 1524
1513 1515 1517 1519 1521 1522 1523 1525 1526 1526 1527 1528 1528 1529 1529 1530 1530 1531 1531 1531 1532 1532 1532 1532 1532 1532 1531 1531 1531 1531 1531 1530 1530 1530 1530 1529 1529 1528 1528 1527 1526 1526 1525
1513 1515 1516 1519 1521 1522 1523 1525 1526 1527 1528 1528 1529 1529 1530 1530 1531 1531 1532 1532 1532 1532 1533 1533 1533 1533 1532 1532 1532 1532 1532 1532 1531 1531 1531 1531 1530 1529 1529 1528 1527 1526 1526
1513 1515 1517 1519 1521 1522 1523 1525 1526 1527 1528 1529 1529 1530 1531 1531 1532 1532 1532 1533 1533 1533 1533 1533 1533 1533 1533 1533 1532 1532 1532 1532 1532 1532 1532 1532 1531 1530 1529 1528 1528 1527 1526
1513 1515 1517 1519 1521 1522 1523 1525 1526 1527 1528 1529 1530 1530 1531 1532 1532 1533 1533 1533 1533 1534 1534 1534 1534 1534 1534 1534 1533 1533 1533 1533 1533 1533 1533 1532 1531 1530 1530 1529 1528 1527 1526
1513 1515 1516 1518 1520 1522 1523 1525 1526 1527 1528 1529 1530 1531 1531 1532 1532 1533 1533 1534 1534 1534 1534 1534 1534 1534 1534 1534 1534 1534 1533 1533 1533 1533 1533 1532 1532 1531 1530 1529 1528 1527 1526
1514 1515 1517 1518 1520 1521 1523 1524 1526 1527 1528 1529 1530 1531 1531 1532 1533 1533 1534 1534 1534 1534 1534 1534 1534 1534 1534 1534 1534 1534 1534 1534 1534 1533 1533 1533 1532 1531 1530 1529 1528 1528 1527
1514 1515 1516 1518 1520 1521 1522 1524 1525 1527 1528 1529 1530 1531 1531 1532 1533 1533 1534 1534 1535 1535 1535 1535 1535 1535 1535 1534 1534 1534 1534 1534 1534 1534 1533 1533 1532 1531 1530 1529 1528 1527 1526
1514 1514 1516 1517 1519 1520 1522 1523 1525 1526 1527 1529 1529 1530 1531 1532 1533 1533 1534 1534 1534 1535 1535 1535 1535 1535 1535 1535 1534 1534 1534 1534 1534 1534 1533 1532 1531 1531 1530 1529 1528 1527 1526
1513 1514 1515 1517 1518 1520 1521 1523 1524 1525 1527 1528 1529 1530 1531 1531 1532 1533 1533 1534 1534 1534 1535 1535 1535 1535 1535 1535 1534 1534 1534 1534 1534 1533 1533 1532 1531 1530 1529 1529 1528 1527 1525
1513 1513 1515 1516 1517 1519 1520 1521 1523 1525 1526 1527 1528 1529 1530 1531 1532 1532 1533 1533 1534 1534 1534 1534 1535 1535 1534 1534 1534 1534 1534 1533 1533 1532 1532 1531 1530 1529 1529 1528 1527 1526 1525
1511 1512 1513 1515 1516 1517 1519 1520 1522 1523 1525 1526 1527 1528 1529 1529 1530 1531 1532 1533 1533 1534 1534 1534 1534 1534 1534 1533 1533 1533 1533 1532 1532 1531 1530 1530 1529 1528 1527 1526 1526 1525 1524
1509 1511 1512 1513 1514 1516 1517 1519 1520 1521 1523 1524 1526 1527 1528 1528 1529 1530 1530 1531 1532 1533 1533 1533 1533 1533 1533 1532 1532 1532 1532 1531 1531 1530 1529 1528 1528 1527 1526 1525 1524 1523 1522
1508 1509 1510 1511 1512 1514 1515 1517 1518 1519 1521 1522 1523 1525 1526 1526 1527 1528 1529 1530 1531 1531 1532 1532 1532 1532 1532 1531 1531 1531 1530 1530 1529 1529 1528 1527 1526 1526 1524 1524 1522 1521 1520
1506 1507 1508 1509 1510 1512 1513 1515 1516 1517 1519 1520 1521 1523 1524 1525 1525 1526 1527 1528 1529 1530 1530 1530 1530 1530 1530 1530 1530 1529 1529 1528 1527 1527 1526 1525 1525 1524 1522 1522 1521 1519 1518
1504 1505 1506 1507 1508 1510 1511 1512 1514 1515 1517 1518 1519 1520 1521 1522 1523 1524 1525 1526 1527 1528 1528 1528 1529 1529 1529 1528 1528 1527 1527 1526 1525 1525 1524 1523 1522 1521 1520 1519 1518 1517 1516
1501 1502 1504 1505 1506 1507 1509 1510 1512 1513 1514 1515 1516 1517 1519 1520 1521 1522 1523 1524 1524 1525 1526 1526 1527 1527 1526 1526 1526 1525 1525 1524 1523 1522 1522 1521 1520 1518 1517 1516 1516 1515 1514
1499 1500 1501 1502 1503 1505 1506 1508 1509 1510 1512 1513 1514 1515 1516 1517 1518 1519 1520 1521 1522 1523 1524 1524 1524 1524 1524 1524 1524 1523 1522 1521 1521 1520 1519 1518 1517 1516 1515 1514 1513 1512 1511
1496 1497 1498 1499 1500 1502 1503 1505 1506 1507 1509 1510 1511 1512 1513 1514 1516 1516 1517 1519 1519 1520 1521 1521 1521 1522 1522 1521 1521 1520 1519 1519 1518 1517 1516 1515 1514 1513 1512 1511 1509 1509 1508
1493 1494 1495 1496 1498 1499 1500 1502 1503 1504 1506 1507 1508 1510 1511 1512 1513 1514 1515 1516 1516 1517 1518 1519 1519 1519 1519 1519 1518 1517 1516 1516 1515 1514 1513 1512 1511 1510 1509 1508 1506 1505 1504
1490 1491 1492 1493 1494 1495 1497 1498 1499 1501 1502 1504 1505 1506 1508 1508 1509 1510 1511 1512 1513 1514 1515 1516 1516 1516 1516 1516 1515 1514 1513 1512 1511 1511 1510 1509 1508 1506 1505 1504 1503 1502 1501
1486 1488 1489 1490 1491 1492 1494 1495 1496 1497 1499 1500 1502 1503 1504 1505 1506 1507 1508 1509 1510 1511 1512 1512 1513 1512 1512 1512 1512 1511 1511 1510 1507 1507 1506 1505 1504 1502 1501 1500 1499 1498 1497
1483 1484 1485 1486 1488 1489 1490 1492 1493 1494 1495 1497 1498 1499 1500 1501 1502 1504 1505 1505 1506 1507 1508 1509 1509 1509 1509 1509 1509 1510 1509 1507 1505 1503 1502 1501 1499 1498 1497 1496 1495 1494 1493
1479 1480 1481 1483 1484 1485 1487 1488 1488 1489 1490 1492 1494 1495 1497 1498 1499 1500 1501 1502 1503 1503 1504 1505 1505 1506 1506 1505 1506 1505 1506 1504 1503 1501 1498 1497 1496 1494 1493 1492 1491 1490 1489
1476 1477 1478 1480 1481 1482 1483 1484 1485 1486 1487 1489 1490 1492 1493 1494 1495 1496 1497 1498 1499 1499 1500 1501 1501 1502 1502 1502 1502 1501 1501 1501 1500 1499 1496 1494 1492 1491 1489 1488 1487 1486 1485
1472 1473 1474 1476 1477 1478 1479 1480 1481 1482 1484 1485 1486 1488 1489 1490 1491 1492 1494 1494 1495 1496 1496 1497 1497 1497 1498 1498 1498 1498 1497 1497 1496 1495 1493 1491 1489 1487 1485 1484 1483 1482 1481